Location: Eindhoven
(51.4416°N, 5.4697°E)
Time: 13:58:44
(UTC+01:00)

A-11 Canister half - Visible Passes

Search period start: 22 November 2019 00:00
Search period end: 02 December 2019 00:00
Orbit: 1527 x 1682 km, 47.3° (Epoch: 21 November)

Date Brightness Start Highest point End Pass type
(mag) Time Alt. Az. Time Alt. Az. Time Alt. Az.
22 Nov 11.1 18:47:49 10° W 18:54:30 22° SW 19:01:05 10° S visible
23 Nov 11.1 18:26:02 10° W 18:32:59 23° SW 18:39:47 10° S visible
24 Nov 11.2 18:04:17 10° W 18:11:26 24° SW 18:18:27 10° S visible
25 Nov 11.2 17:42:32 10° W 17:49:54 25° SW 17:57:07 10° S visible
26 Nov 11.2 17:20:47 10° W 17:28:21 27° SW 17:35:46 10° S visible
27 Nov 11.3 16:59:03 10° W 17:06:49 28° SW 17:14:23 10° S visible
30 Nov 11.7 07:39:30 10° S 07:46:05 20° SE 07:52:37 10° E visible
01 Dec 11.7 07:18:13 10° SSE 07:24:32 19° SE 07:30:48 10° E visible
